| time (UTC) | temp F | wind direction | speed MPH | gust MPH | rain 1hr in | rain 24hr in | rain mn in | humidity % | barometer mb |
| 20260505030025 | 53 | 194 | 0.0 | 3.0 | 0.00 | 0.00 | 0.00 | 71 | 1011.1 |
| 20260505024547 | 54 | 201 | 0.0 | 7.0 | 0.00 | 0.00 | 0.00 | 70 | 1011.1 |
| 20260505023021 | 54 | 187 | 0.0 | 8.0 | 0.00 | 0.00 | 0.00 | 68 | 1011.2 |
| 20260505021536 | 55 | 153 | 1.0 | 9.0 | 0.00 | 0.00 | 0.00 | 67 | 1011.4 |
| 20260505020016 | 55 | 211 | 3.0 | 11.0 | 0.00 | 0.00 | 0.00 | 66 | 1011.4 |
| 20260505014518 | 55 | 189 | 0.0 | 10.0 | 0.00 | 0.00 | 0.00 | 65 | 1011.2 |
| 20260505013011 | 55 | 200 | 0.0 | 6.0 | 0.00 | 0.00 | 0.00 | 64 | 1011.2 |
| 20260505011507 | 56 | 95 | 0.0 | 8.0 | 0.00 | 0.00 | 0.00 | 61 | 1011.1 |
| 20260505010003 | 57 | 158 | 0.0 | 0.0 | 0.00 | 0.00 | 0.00 | 60 | 1010.7 |
| 20260505004605 | 57 | 192 | 2.0 | 11.0 | 0.00 | 0.00 | 0.00 | 60 | 1010.4 |
| 20260505003056 | 58 | 191 | 1.0 | 9.0 | 0.00 | 0.00 | 0.00 | 58 | 1010.2 |
| 20260505001523 | 59 | 179 | 0.0 | 7.0 | 0.00 | 0.00 | 0.00 | 55 | 1009.9 |
| 20260505000019 | 60 | 176 | 0.0 | 5.0 | 0.00 | 0.00 | 0.00 | 53 | 1009.5 |
| 20260504234544 | 61 | 149 | 0.0 | 5.0 | 0.00 | 0.00 | 0.00 | 50 | 1009.3 |
| 20260504233055 | 62 | 123 | 0.0 | 9.0 | 0.00 | 0.00 | 0.00 | 49 | 1009.1 |
| 20260504231508 | 63 | 171 | 0.0 | 9.0 | 0.00 | 0.00 | 0.00 | 48 | 1008.9 |
| 20260504230005 | 64 | 173 | 2.0 | 14.0 | 0.00 | 0.00 | 0.00 | 47 | 1008.8 |
| 20260504224502 | 64 | 178 | 0.0 | 14.0 | 0.00 | 0.00 | 0.00 | 47 | 1008.6 |
| 20260504223103 | 65 | 159 | 2.0 | 15.0 | 0.00 | 0.00 | 0.00 | 45 | 1008.5 |
| 20260504221605 | 65 | 185 | 5.0 | 15.0 | 0.00 | 0.00 | 0.00 | 45 | 1008.5 |
| 20260504220113 | 66 | 163 | 5.0 | 18.0 | 0.00 | 0.00 | 0.00 | 43 | 1008.4 |
| 20260504214521 | 67 | 166 | 5.0 | 18.0 | 0.00 | 0.00 | 0.00 | 42 | 1008.3 |
| 20260504213018 | 68 | 186 | 4.0 | 18.0 | 0.00 | 0.00 | 0.00 | 40 | 1008.3 |
| 20260504211514 | 67 | 180 | 1.0 | 11.0 | 0.00 | 0.00 | 0.00 | 40 | 1008.2 |
| 20260504210011 | 68 | 180 | 6.0 | 22.0 | 0.00 | 0.00 | 0.00 | 39 | 1008.2 |
| 20260504204619 | 68 | 180 | 6.0 | 16.0 | 0.00 | 0.00 | 0.00 | 37 | 1008.1 |
| 20260504203008 | 67 | 236 | 3.0 | 14.0 | 0.00 | 0.00 | 0.00 | 37 | 1008.2 |
| 20260504201536 | 67 | 198 | 10.0 | 17.0 | 0.00 | 0.00 | 0.00 | 36 | 1008.4 |
| 20260504200042 | 67 | 213 | 8.0 | 19.0 | 0.00 | 0.00 | 0.00 | 37 | 1008.3 |
| 20260504194537 | 67 | 199 | 9.0 | 19.0 | 0.00 | 0.00 | 0.00 | 35 | 1008.5 |
| 20260504193032 | 67 | 185 | 6.0 | 23.0 | 0.00 | 0.00 | 0.00 | 35 | 1008.5 |
| 20260504191530 | 67 | 220 | 9.0 | 21.0 | 0.00 | 0.00 | 0.00 | 35 | 1008.6 |
| 20260504190033 | 66 | 215 | 9.0 | 15.0 | 0.00 | 0.00 | 0.00 | 35 | 1008.7 |
| 20260504184532 | 66 | 225 | 7.0 | 16.0 | 0.00 | 0.00 | 0.00 | 36 | 1008.9 |
| 20260504183023 | 66 | 171 | 7.0 | 18.0 | 0.00 | 0.00 | 0.00 | 35 | 1009.0 |
| 20260504181523 | 66 | 194 | 6.0 | 20.0 | 0.00 | 0.00 | 0.00 | 34 | 1009.1 |
| 20260504180019 | 65 | 214 | 11.0 | 23.0 | 0.00 | 0.00 | 0.00 | 33 | 1009.4 |
| 20260504174515 | 65 | 249 | 6.0 | 26.0 | 0.00 | 0.00 | 0.00 | 35 | 1009.2 |
| 20260504173013 | 65 | 201 | 12.0 | 25.0 | 0.00 | 0.00 | 0.00 | 34 | 1009.6 |
| 20260504171511 | 64 | 169 | 11.0 | 27.0 | 0.00 | 0.00 | 0.00 | 34 | 1009.4 |
| 20260504160200 | 62 | 208 | 11.0 | 21.0 | 0.00 | 0.00 | 0.00 | 39 | 1010.4 |
| 20260504044532 | 39 | 274 | 0.0 | 0.0 | 0.00 | 0.00 | 0.00 | 72 | 1011.9 |
| 20260504043002 | 39 | 274 | 0.0 | 0.0 | 0.00 | 0.00 | 0.00 | 72 | 1011.8 |
| 20260504041559 | 38 | 274 | 0.0 | 0.0 | 0.00 | 0.00 | 0.00 | 71 | 1011.7 |
| 20260504040056 | 38 | 274 | 0.0 | 0.0 | 0.00 | 0.00 | 0.00 | 73 | 1011.6 |
| 20260504034554 | 37 | 274 | 0.0 | 0.0 | 0.00 | 0.00 | 0.00 | 74 | 1011.5 |
| 20260504033053 | 38 | 274 | 0.0 | 0.0 | 0.00 | 0.00 | 0.00 | 75 | 1011.4 |
| 20260504031552 | 38 | 274 | 0.0 | 0.0 | 0.00 | 0.00 | 0.00 | 74 | 1011.3 |